Regional Weather Roundup
Issued by NWS Green Bay, WI

Home | Current Version | Previous Version | Graphics & Text | Print | Product List | Glossary Off
Versions: 1 2 3 4 5 6 7 8 9 10 11 12 13 14 15 16 17 18 19 20 21 22 23 24 25 26 27 28 29 30 31 32 33 34 35 36 37 38 39 40 41 42 43 44 45 46 47 48 49 50

434
ASUS43 KGRB 172311
RWRGRB

NORTH-CENTRAL AND NORTHEAST WISCONSIN REGIONAL WEATHER ROUNDUP
NATIONAL WEATHER SERVICE GREEN BAY WI
500 PM CST SAT FEB 17 2018

WIZ005-009-010>012-018-019-180000-
NORTH CENTRAL WISCONSIN

CITY           SKY/WX    TMP DP  RH WIND       PRES   REMARKS
IRONWOOD       FAIR      27  14  58 W13       29.79R
MANITOWISH WTR MOCLDY    28  16  60 SW9       29.75R
ARBOR VITAE    FAIR      32  22  68 W8        29.77R
EAGLE RIVER    MOCLDY    28  17  64 W12       29.75R
LAND O LAKES   CLOUDY    29  17  61 SW6       29.76R
RHINELANDER    NOT AVBL
PHILLIPS       CLOUDY    29  20  70 SW10      29.79R
ANTIGO         CLOUDY    22  19  86 W12       29.81S
TOMAHAWK       CLOUDY    27  19  73 SW5       29.82R
MERRILL        CLOUDY    26  20  80 SW12      29.83S
$$

WIZ013-073-180000-
NORTHEAST WISCONSIN

CITY           SKY/WX    TMP DP  RH WIND       PRES   REMARKS
IRON MOUNTAIN  NOT AVBL
MARINETTE      FAIR      27  21  80 W8        29.85S
OCONTO         CLOUDY    26  21  83 SW9       29.87R
$$

WIZ017-030-035>037-045-180000-
CENTRAL WISCONSIN

CITY           SKY/WX    TMP DP  RH WIND       PRES   REMARKS
MEDFORD        CLOUDY    25  20  83 W10       29.84R
WAUSAU         CLOUDY    25  20  81 SW7       29.83R
MOSINEE        CLOUDY    25  21  86 SW10G17   29.87R
MARSHFIELD     CLOUDY    26  20  77 W10       29.86R
WISC RAPIDS    CLOUDY    27  20  75 W7        29.91R
STEVENS POINT  CLOUDY    25  20  83 W8        29.88R
WAUPACA        CLOUDY    29  23  76 SW8       29.91R
SHAWANO        CLOUDY    28  22  79 SW7       29.87R
CLINTONVILLE   CLOUDY    27  21  78 SW8       29.88R
WAUTOMA        CLOUDY    27  22  81 W13       29.93R
$$

WIZ038-039-048-051-180000-
FOX VALLEY

CITY           SKY/WX    TMP DP  RH WIND       PRES   REMARKS
NWS GREEN BAY  NOT AVBL
APPLETON       MOCLDY    27  21  80 SW10      29.87S
OSHKOSH        NOT AVBL
FOND DU LAC    NOT AVBL
$$

WIZ022-050-052-180000-
EAST CENTRAL WISCONSIN

CITY           SKY/WX    TMP DP  RH WIND       PRES   REMARKS
EPHRAIM        CLOUDY    23  20  89 SW13G20   29.83S
WASHINGTON ISL CLOUDY    24  20  87 SW14G21   29.83R
STURGEON BAY   FLURRIES  25  22  88 SW13      29.87R
MANITOWOC      MIX PCPN  27  23  85 SW12      29.91S
SHEBOYGAN      LGT SNOW  27  26  96 SW6       29.91S FOG
$$

LMZ563-521-522-541>543-180000-
LAKESHORE

STATION/POSITION TIME  TEMP    WIND        PRES    VSBY  WAVE
                       AIR SEA DIR/SP/G                  HT/PER
                 (UTC) (F)     (DEG/KT/KT) (MB)    (MI)  (FT/S)
SHEBOYGAN LKSHOR 2300   28     230/  6/  6 1014.1R
KEWAUNEE LKSHORE 2248   26     240/  5/  9 1011.4R
NORTHPORT PIER   2240   24                 1010.2R
MENOMINEE LKSHOR 2248   26     210/ 12/ 16 1010.6R
$$




USA.gov is the U.S. government's official web portal to all federal, state and local government web resources and services.